Regional Weather Roundup
Issued by NWS Newport/Morehead, NC

Current Version | Previous Version | Graphics & Text | Print | Product List | Glossary Off
Versions: 1 2 3 4 5 6 7 8 9 10 11 12 13 14 15 16 17 18 19 20 21 22 23 24 25 26 27 28 29 30 31 32 33 34 35 36 37 38 39 40 41 42 43 44 45 46 47 48 49 50
000 ASUS42 KMHX 140225 RWRMHX WEATHER ROUNDUP FOR EASTERN NORTH CAROLINA NATIONAL WEATHER SERVICE NEWPORT/MOREHEAD CITY NC 900 PM EST SAT FEB 13 2016 NOTE: "FAIR" INDICATES FEW OR NO CLOUDS BELOW 12,000 FEET WITH NO SIGNIFICANT WEATHER AND/OR OBSTRUCTIONS TO VISIBILITY NCZ015>017-031-032-045>047-102-103-140300- NORTH COAST CITY SKY/WX TMP DP RH WIND PRES REMARKS EDENTON CLEAR 28 6 39 NW7 30.41R ELIZABETH CITY CLEAR 26 3 37 N16 30.39R WCI 14 KITTY HAWK CLEAR 27 2 34 CALM 30.35R MANTEO CLEAR 28 2 33 N14G20 30.37R WCI 17 $$ NCZ045>047-081-094-103-104-140300- CENTRAL COAST CITY SKY/WX TMP DP RH WIND PRES REMARKS FRISCO CLEAR 31 6 35 NW14G26 30.36R SWANQUARTER N/A 27 N/A N/A NW7 30.36S $$ NCZ095-097-098-100-101-140300- SOUTHERN COAST CITY SKY/WX TMP DP RH WIND PRES REMARKS BEAUFORT CLEAR 29 6 38 N13 30.39R WCI 19 CEDAR ISLAND N/A N/A N/A N/A NW17G32 30.44R JACKSONVILLE CLEAR 28 8 43 N8 30.40R PINEY ISLAND CLEAR N/A N/A N/A N17 30.39R WILMINGTON CLEAR 31 7 36 N8 30.39R $$ NCZ011>013-027>030-043-044-078>080-089-090>093-098-140300- COASTAL PLAIN CITY SKY/WX TMP DP RH WIND PRES REMARKS AHOSKIE CLEAR 25 -2 31 NW3 30.42R CLINTON CLEAR 30 8 39 N5 30.41R ELIZABETHTOWN CLEAR 28 8 42 CALM 30.40R GOLDSBORO CLEAR 28 -2 26 NW9 30.40R GREENVILLE CLEAR 28 3 34 N7 30.42R HAVELOCK CLEAR 30 5 34 N14 30.40R WCI 19 KENANSVILLE CLEAR 27 9 45 CALM 30.42R KINSTON CLEAR N/A N/A N/A NW5 30.41R NEW BERN CLEAR 28 7 41 N5 30.41R RICHLANDS CLEAR 27 5 39 NW3 30.41R ROCKY MOUNT CLEAR 26 1 34 NW9 30.42R WASHINGTON CLEAR 26 3 38 NW3 30.42R WHITEVILLE CLEAR 32 6 33 NE6 30.39R $$ AMZ130-135-150-152-154-156-158-170-250-252-270-ANZ085-086-088-633-658-670-140300- MARINE OBSERVATIONS STATION/POSITION TIME TEMP WIND PRES WAVE SWELL AIR SEA DIR/SP/G HT/PER HT/PER (UTC) (F) (DEG/KT/KT) (MB) (FT/S) (FT/S) CHESAPEAKE LIGHT 0200 24 340/ 27/ 30 1029.0 64 E VA BEACH 0150 29 50 330/ 25/ 31 1026.9 9/ 8 2/12 DUCK 0200 29 1027.5 2 E DUCK 0111 42 N/A 4/ 7 OREGON INLET 0200 27 38 1028.1 13E OREGON INLT 0200 45 N/A 6/ 7 HATTERAS CG 0200 32 42 1027.6 DIAMOND BUOY 0150 36 72 330/ 23/ 31 1027.1 5/ 5 2/ 9 CAPE LOOKOUT NOT AVBL BEAUFORT LAB 0200 31 42 1028.0 30 SE NEW RVR IN 0208 38 61 1027.5 30 SE NEW RVR IN 0125 60 N/A 5/ 5 27 SE WRIGHTSVLE 0208 38 60 360/ 17/ 25 1026.9 5 SE WRIGHTSVLE NOT AVBL 225 S CAPE HAT 0150 49 68 330/ 21/ 27 N/A 10/ 8 7/ 8 41 SE CHARLESTON 0150 47 66 360/ 10/ 14 1027.3 3/ 6 3/ 6 $$

USA.gov is the U.S. government's official web portal to all federal, state and local government web resources and services.